Location: Gouy
(50.0008°N, 3.2556°E)
Time: 07:22:34
(UTC+00:00)

Cosmos 2151 Rocket - Pass Details

Date: 21 August 2024
Orbit: 615 x 637 km, 82.5° (Epoch: 07 September)

Event Time Altitude Azimuth Distance (km) Brightness Sun altitude
Rises 03:57:03 0° 177° (S) 2,900 6.7 -8.0°
Reaches altitude 10° 03:59:17 10° 174° (S) 2,001 6.0 -7.7°
Maximum altitude 04:03:39 58° 95° (E) 740 4.3 -7.1°
Drops below altitude 10° 04:08:04 10° 17° (NNE) 2,031 6.9 -6.4°
Sets 04:10:21 0° 14° (NNE) 2,947 7.7 -6.1°
